EA1QW Weather Reports


Display with metric or nautical units.
time (UTC)temp
F
wind
direction
speed
MPH
gust
MPH
rain 1hr
in
rain 24hr
in
rain mn
in
humidity
%
barometer
mb
20180922191023 68 340 0.0 1.0 0.00 0.00 0.00 91 1024.4
20180922190516 68 340 0.0 3.0 0.00 0.00 0.00 91 1024.4
20180922190014 68 340 0.0 3.0 0.00 0.00 0.00 90 1024.3
20180922185528 68 340 0.0 0.0 0.00 0.00 0.00 90 1024.3
20180922185025 69 340 0.0 0.0 0.00 0.00 0.00 90 1024.3
20180922184522 69 340 0.0 0.0 0.00 0.00 0.00 90 1024.0
20180922184016 69 340 0.0 3.0 0.00 0.00 0.00 90 1024.0
20180922183518 69 340 1.0 3.0 0.00 0.00 0.00 89 1024.0
20180922183020 69 340 0.0 0.0 0.00 0.00 0.00 89 1023.8
20180922182515 69 340 0.0 0.0 0.00 0.00 0.00 89 1023.8
20180922181521 69 340 0.0 0.0 0.00 0.00 0.00 89 1023.8
20180922181019 69 340 0.0 1.0 0.00 0.00 0.00 89 1023.8
20180922180516 69 340 0.0 4.0 0.00 0.00 0.00 89 1023.8
20180922180020 70 340 1.0 4.0 0.00 0.00 0.00 89 1023.8
20180922175517 69 343 0.0 5.0 0.00 0.00 0.00 89 1023.8
20180922175018 70 343 0.0 5.0 0.00 0.00 0.00 89 1023.8
20180922174519 70 306 0.0 5.0 0.00 0.00 0.00 88 1023.8
20180922174019 70 355 1.0 7.0 0.00 0.00 0.00 88 1023.8
20180922173517 70 355 2.0 7.0 0.00 0.00 0.00 88 1023.8
20180922173015 70 321 2.0 5.0 0.00 0.00 0.00 88 1023.6
20180922172519 70 315 0.0 4.0 0.00 0.00 0.00 88 1023.6
20180922172014 70 315 1.0 6.0 0.00 0.00 0.00 89 1023.6
20180922171529 70 315 2.0 6.0 0.00 0.00 0.00 89 1023.6
20180922171023 70 347 3.0 6.0 0.00 0.00 0.00 88 1023.7
20180922170523 70 329 2.0 8.0 0.00 0.00 0.00 88 1023.7
20180922170023 70 332 3.0 8.0 0.00 0.00 0.00 88 1023.7
20180922165515 70 319 5.0 7.0 0.00 0.00 0.00 88 1023.7
20180922165028 70 338 2.0 6.0 0.00 0.00 0.00 88 1023.7
20180922164513 70 348 2.0 6.0 0.00 0.00 0.00 88 1023.4
20180922164027 70 360 3.0 7.0 0.00 0.00 0.00 88 1023.4
20180922163523 70 18 4.0 9.0 0.00 0.00 0.00 88 1023.4
20180922163016 70 355 4.0 9.0 0.00 0.00 0.00 87 1023.3
20180922162518 71 355 2.0 7.0 0.00 0.00 0.00 86 1023.3
20180922162031 71 344 2.0 7.0 0.00 0.00 0.00 86 1023.3
20180922161528 72 331 1.0 6.0 0.00 0.00 0.00 85 1023.3
20180922161027 71 331 1.0 7.0 0.00 0.00 0.00 85 1023.4
20180922160526 71 335 4.0 7.0 0.00 0.00 0.00 85 1023.4
20180922160019 72 348 5.0 7.0 0.00 0.00 0.00 85 1023.5
20180922155515 72 329 3.0 7.0 0.00 0.00 0.00 84 1023.5
20180922155024 71 345 3.0 8.0 0.00 0.00 0.00 85 1023.5
20180922154524 72 309 3.0 9.0 0.00 0.00 0.00 85 1023.4
20180922154017 71 5 3.0 9.0 0.00 0.00 0.00 85 1023.4
20180922153521 72 345 5.0 7.0 0.00 0.00 0.00 84 1023.4
20180922153016 72 311 1.0 6.0 0.00 0.00 0.00 84 1023.6
20180922152517 72 355 3.0 6.0 0.00 0.00 0.00 83 1023.6
20180922152015 72 321 3.0 9.0 0.00 0.00 0.00 83 1023.6
20180922151513 72 317 1.0 9.0 0.00 0.00 0.00 83 1023.6
20180922151027 72 327 2.0 7.0 0.00 0.00 0.00 84 1023.6
20180922150525 72 346 4.0 8.0 0.00 0.00 0.00 83 1023.6
20180922150019 72 347 5.0 8.0 0.00 0.00 0.00 83 1023.6
20180922145517 72 306 3.0 6.0 0.00 0.00 0.00 82 1023.6
20180922145018 72 301 3.0 9.0 0.00 0.00 0.00 82 1023.6
20180922144519 72 298 4.0 10.0 0.00 0.00 0.00 82 1023.7
20180922144014 72 309 5.0 10.0 0.00 0.00 0.00 80 1023.7
20180922143515 73 320 3.0 7.0 0.00 0.00 0.00 80 1023.7
20180922143015 73 323 4.0 7.0 0.00 0.00 0.00 79 1023.6
20180922142513 73 38 2.0 7.0 0.00 0.00 0.00 79 1023.6
20180922142032 74 283 4.0 7.0 0.00 0.00 0.00 76 1023.6
20180922141530 74 305 2.0 8.0 0.00 0.00 0.00 78 1023.6
20180922141025 74 290 4.0 7.0 0.00 0.00 0.00 77 1023.6
20180922140525 73 345 2.0 7.0 0.00 0.00 0.00 77 1023.6
20180922140022 73 304 5.0 8.0 0.00 0.00 0.00 77 1023.6
20180922135518 74 355 4.0 8.0 0.00 0.00 0.00 76 1023.5
20180922135032 74 341 2.0 7.0 0.00 0.00 0.00 76 1023.5
20180922134532 74 333 4.0 7.0 0.00 0.00 0.00 75 1023.5
20180922134024 75 307 2.0 8.0 0.00 0.00 0.00 76 1023.4
20180922133522 74 304 3.0 8.0 0.00 0.00 0.00 76 1023.4
20180922133019 74 288 1.0 8.0 0.00 0.00 0.00 75 1023.6
20180922132523 75 331 5.0 8.0 0.00 0.00 0.00 74 1023.6
20180922132017 75 304 3.0 6.0 0.00 0.00 0.00 75 1023.6
20180922131519 74 337 4.0 9.0 0.00 0.00 0.00 76 1023.6
20180922131011 75 333 3.0 8.0 0.00 0.00 0.00 75 1023.6
20180922130514 74 355 4.0 7.0 0.00 0.00 0.00 75 1023.6
20180922130024 75 346 3.0 6.0 0.00 0.00 0.00 73 1023.6
20180922125521 75 360 2.0 8.0 0.00 0.00 0.00 75 1023.6
20180922125016 75 355 1.0 8.0 0.00 0.00 0.00 75 1023.6
20180922124515 75 350 4.0 7.0 0.00 0.00 0.00 73 1023.6
20180922124014 76 291 2.0 5.0 0.00 0.00 0.00 73 1023.6
20180922123519 75 317 2.0 7.0 0.00 0.00 0.00 74 1023.6
20180922123018 74 323 3.0 7.0 0.00 0.00 0.00 75 1023.8
20180922122516 74 313 4.0 7.0 0.00 0.00 0.00 75 1023.8
20180922122017 75 269 3.0 6.0 0.00 0.00 0.00 74 1023.8
20180922121522 75 333 3.0 6.0 0.00 0.00 0.00 73 1023.8
20180922121020 75 295 1.0 6.0 0.00 0.00 0.00 74 1023.8
20180922120521 74 330 3.0 10.0 0.00 0.00 0.00 75 1023.8
20180922120019 74 342 3.0 10.0 0.00 0.00 0.00 75 1023.7
20180922115518 74 342 3.0 10.0 0.00 0.00 0.00 75 1023.7
20180922115016 74 323 4.0 10.0 0.00 0.00 0.00 74 1023.7
20180922114515 74 331 4.0 10.0 0.00 0.00 0.00 74 1023.6
20180922114016 74 285 4.0 10.0 0.00 0.00 0.00 75 1023.6
20180922113521 74 344 6.0 10.0 0.00 0.00 0.00 74 1023.6
20180922113019 74 268 5.0 8.0 0.00 0.00 0.00 74 1023.6
20180922112518 75 313 3.0 8.0 0.00 0.00 0.00 73 1023.6
20180922112020 75 297 3.0 8.0 0.00 0.00 0.00 74 1023.6
20180922111522 74 330 5.0 8.0 0.00 0.00 0.00 76 1023.3
20180922111021 75 340 3.0 9.0 0.00 0.00 0.00 75 1023.3
20180922110520 75 17 4.0 9.0 0.00 0.00 0.00 74 1023.3
20180922110019 77 360 5.0 9.0 0.00 0.00 0.00 71 1023.3
20180922105520 77 296 4.0 7.0 0.00 0.00 0.00 71 1023.3
20180922105019 77 303 5.0 7.0 0.00 0.00 0.00 71 1023.3
20180922104515 77 273 3.0 7.0 0.00 0.00 0.00 71 1023.2
20180922104031 78 292 4.0 6.0 0.00 0.00 0.00 70 1023.2
20180922103529 78 298 3.0 7.0 0.00 0.00 0.00 70 1023.2
20180922103029 78 303 4.0 7.0 0.00 0.00 0.00 70 1023.2
20180922102530 78 267 2.0 6.0 0.00 0.00 0.00 68 1023.1
20180922102057 78 263 2.0 6.0 0.00 0.00 0.00 68 1023.1
20180922101527 78 267 0.0 5.0 0.00 0.00 0.00 68 1023.1
20180922101032 78 265 2.0 5.0 0.00 0.00 0.00 69 1023.0
20180922100529 78 261 0.0 4.0 0.00 0.00 0.00 70 1023.0
20180922100023 77 274 1.0 4.0 0.00 0.00 0.00 72 1023.0
20180922095519 77 242 1.0 4.0 0.00 0.00 0.00 73 1022.9
20180922095023 77 240 1.0 4.0 0.00 0.00 0.00 73 1022.9
20180922094518 77 240 1.0 4.0 0.00 0.00 0.00 71 1022.8
20180922094019 76 244 0.0 3.0 0.00 0.00 0.00 75 1022.8
20180922093518 75 248 1.0 4.0 0.00 0.00 0.00 74 1022.8
20180922093018 76 184 0.0 4.0 0.00 0.00 0.00 74 1022.8
20180922092519 76 153 0.0 3.0 0.00 0.00 0.00 75 1022.8
20180922091021 74 152 0.0 2.0 0.00 0.00 0.00 80 1022.8
20180922090525 74 152 0.0 3.0 0.00 0.00 0.00 81 1022.8
20180922090025 73 152 1.0 4.0 0.00 0.00 0.00 82 1022.8
20180922085526 72 151 0.0 4.0 0.00 0.00 0.00 83 1022.8
20180922085029 72 82 0.0 2.0 0.00 0.00 0.00 85 1022.8
20180922084025 70 82 1.0 2.0 0.00 0.00 0.00 87 1022.7
20180922083522 70 82 1.0 2.0 0.00 0.00 0.00 88 1022.7
20180922083023 69 82 0.0 0.0 0.00 0.00 0.00 90 1022.7
20180922082525 68 82 0.0 0.0 0.00 0.00 0.00 92 1022.6
20180922082017 68 82 0.0 0.0 0.00 0.00 0.00 93 1022.6
20180922081514 67 82 0.0 0.0 0.00 0.00 0.00 94 1022.4
20180922081031 67 82 0.0 0.0 0.00 0.00 0.00 95 1022.4
20180922080514 66 82 0.0 0.0 0.00 0.00 0.00 95 1022.4
20180922080031 66 82 0.0 0.0 0.00 0.00 0.00 95 1022.4
20180922075518 65 82 0.0 0.0 0.00 0.00 0.00 96 1022.5
20180922075013 65 82 0.0 0.0 0.00 0.00 0.00 96 1022.5
20180922074511 64 82 0.0 0.0 0.00 0.00 0.00 96 1022.4
20180922074025 64 82 0.0 0.0 0.00 0.00 0.00 96 1022.4
20180922073522 64 82 0.0 0.0 0.00 0.00 0.00 96 1022.4
20180922073028 63 82 0.0 0.0 0.00 0.00 0.00 96 1022.4
20180922072524 63 82 0.0 0.0 0.00 0.00 0.00 96 1022.3
20180922072033 63 82 0.0 0.0 0.00 0.00 0.00 96 1022.3
20180922071528 62 82 0.0 1.0 0.00 0.00 0.00 96 1022.3
20180922071018 62 82 0.0 1.0 0.00 0.00 0.00 96 1022.4
20180922070531 62 82 0.0 0.0 0.00 0.00 0.00 96 1022.4
20180922070022 61 82 0.0 0.0 0.00 0.00 0.00 96 1022.3
20180922065523 61 82 0.0 1.0 0.00 0.00 0.00 96 1022.3
20180922065016 61 82 0.0 1.0 0.00 0.00 0.00 95 1022.3
20180922064519 61 82 0.0 0.0 0.00 0.00 0.00 95 1022.3
20180922064017 60 82 0.0 0.0 0.00 0.00 0.00 95 1022.3
20180922063524 61 82 0.0 0.0 0.00 0.00 0.00 95 1022.3
20180922063025 61 82 0.0 0.0 0.00 0.00 0.00 95 1022.3
20180922062521 61 82 0.0 0.0 0.00 0.00 0.00 95 1022.3
20180922062016 61 82 0.0 0.0 0.00 0.00 0.00 95 1022.3
20180922061518 61 82 0.0 0.0 0.00 0.00 0.00 95 1022.2
20180922061014 61 82 0.0 0.0 0.00 0.00 0.00 95 1022.2
20180922060516 61 82 0.0 1.0 0.00 0.00 0.00 95 1022.2
20180922060014 61 82 0.0 1.0 0.00 0.00 0.00 95 1022.2
20180922055530 61 82 0.0 0.0 0.00 0.00 0.00 95 1022.2
20180922055028 61 82 0.0 0.0 0.00 0.00 0.00 95 1022.2
20180922054530 61 82 0.0 0.0 0.00 0.00 0.00 94 1022.2
20180922054028 61 82 0.0 0.0 0.00 0.00 0.00 94 1022.1
20180922053527 61 82 0.0 0.0 0.00 0.00 0.00 94 1022.1
20180922053023 61 82 0.0 0.0 0.00 0.00 0.00 95 1022.1
20180922052525 61 82 0.0 0.0 0.00 0.00 0.00 95 1022.0
20180922052028 62 82 0.0 0.0 0.00 0.00 0.00 95 1022.0
20180922051525 62 82 0.0 0.0 0.00 0.00 0.00 95 1022.0
20180922051021 62 82 0.0 0.0 0.00 0.00 0.00 94 1021.9
20180922050522 62 82 0.0 0.0 0.00 0.00 0.00 94 1021.9
20180922050017 62 82 0.0 0.0 0.00 0.00 0.00 94 1021.8
20180922045523 62 82 0.0 0.0 0.00 0.00 0.00 94 1021.8
20180922045025 62 82 0.0 1.0 0.00 0.00 0.00 94 1021.8
20180922044526 62 82 0.0 2.0 0.00 0.00 0.00 94 1021.8
20180922044031 62 82 1.0 2.0 0.00 0.00 0.00 94 1022.1
20180922043515 62 82 0.0 0.0 0.00 0.00 0.00 94 1022.1
20180922043017 62 82 0.0 0.0 0.00 0.00 0.00 94 1021.9
20180922042517 62 82 0.0 0.0 0.00 0.00 0.00 94 1021.9
20180922042022 63 82 0.0 0.0 0.00 0.00 0.00 94 1021.9
20180922041526 63 82 0.0 0.0 0.00 0.00 0.00 94 1021.9
20180922041025 63 82 0.0 0.0 0.00 0.00 0.00 94 1021.7
20180922040523 63 82 0.0 0.0 0.00 0.00 0.00 93 1021.7
20180922040022 63 82 0.0 0.0 0.00 0.00 0.00 93 1021.7
20180922035528 63 82 0.0 0.0 0.00 0.00 0.00 94 1021.7
20180922035030 63 82 0.0 0.0 0.00 0.00 0.00 93 1021.7
20180922034528 63 82 0.0 0.0 0.00 0.00 0.00 93 1021.7
20180922034027 63 82 0.0 0.0 0.00 0.00 0.00 93 1021.4
20180922033525 64 82 0.0 0.0 0.00 0.00 0.00 93 1021.4
20180922033024 64 82 0.0 0.0 0.00 0.00 0.00 93 1021.4
20180922032526 64 82 0.0 0.0 0.00 0.00 0.00 93 1021.7
20180922032030 64 82 0.0 0.0 0.00 0.00 0.00 93 1021.7
20180922031514 64 82 0.0 0.0 0.00 0.00 0.00 93 1021.9
20180922031030 64 82 0.0 0.0 0.00 0.00 0.00 93 1021.9
20180922030528 64 82 0.0 0.0 0.00 0.00 0.00 93 1021.9
20180922030025 64 82 0.0 0.0 0.00 0.00 0.00 93 1021.9
20180922025523 65 82 0.0 0.0 0.00 0.00 0.00 93 1022.3
20180922025019 65 82 0.0 0.0 0.00 0.00 0.00 93 1022.3
20180922024523 65 82 0.0 0.0 0.00 0.00 0.00 93 1022.3
20180922024022 65 82 0.0 0.0 0.00 0.00 0.00 93 1022.4
20180922023523 65 82 0.0 0.0 0.00 0.00 0.00 93 1022.4
20180922023022 65 82 0.0 0.0 0.00 0.00 0.00 93 1022.4
20180922022526 65 82 0.0 0.0 0.00 0.00 0.00 93 1022.6
20180922022031 65 82 0.0 0.0 0.00 0.00 0.00 93 1022.6
20180922021515 65 82 0.0 0.0 0.00 0.00 0.00 93 1022.6
20180922021014 65 82 0.0 0.0 0.00 0.00 0.00 93 1022.6
20180922020515 65 82 0.0 0.0 0.00 0.00 0.00 93 1022.6
20180922020013 65 82 0.0 0.0 0.00 0.00 0.00 93 1022.8
20180922015514 65 82 0.0 0.0 0.00 0.00 0.00 93 1022.8
20180922015013 65 82 0.0 0.0 0.00 0.00 0.00 93 1022.8
20180922014517 65 82 0.0 0.0 0.00 0.00 0.00 93 1022.7
20180922014016 65 82 0.0 0.0 0.00 0.00 0.00 93 1022.7
20180922013524 65 82 0.0 0.0 0.00 0.00 0.00 93 1022.7
20180922013021 65 82 0.0 0.0 0.00 0.00 0.00 93 1022.7
20180922012522 65 82 0.0 0.0 0.00 0.00 0.00 93 1023.0
20180922012024 65 82 0.0 0.0 0.00 0.00 0.00 93 1023.0
20180922011525 65 82 0.0 0.0 0.00 0.00 0.00 93 1023.0
20180922011024 65 82 0.0 0.0 0.00 0.00 0.00 93 1023.3
20180922010526 65 82 0.0 0.0 0.00 0.00 0.00 93 1023.3
20180922010023 65 82 0.0 0.0 0.00 0.00 0.00 93 1023.3
20180922005524 65 82 0.0 1.0 0.00 0.00 0.00 93 1023.2
20180922005026 65 82 0.0 2.0 0.00 0.00 0.00 93 1023.2
20180922004527 65 82 0.0 4.0 0.00 0.00 0.00 93 1023.2
20180922004023 65 82 2.0 4.0 0.00 0.00 0.00 93 1023.3
20180922003525 65 82 2.0 7.0 0.00 0.00 0.00 93 1023.3
20180922003024 65 82 3.0 7.0 0.00 0.00 0.00 93 1023.3
20180922002525 65 68 4.0 9.0 0.00 0.00 0.00 93 1023.3
20180922002032 65 83 4.0 9.0 0.00 0.00 0.00 93 1023.3
20180922001512 65 74 4.0 8.0 0.00 0.00 0.00 93 1023.3
20180922001028 65 80 4.0 8.0 0.00 0.00 0.00 93 1023.3
20180922000531 65 104 3.0 8.0 0.00 0.00 0.00 93 1023.3
20180922000028 65 101 4.0 8.0 0.00 0.00 0.00 93 1023.3
20180921235530 65 81 2.0 5.0 0.00 0.00 0.00 93 1023.4
20180921235015 65 78 2.0 7.0 0.00 0.00 0.00 93 1023.4
20180921234519 65 92 4.0 7.0 0.00 0.00 0.00 93 1023.7
20180921234016 65 86 2.0 5.0 0.00 0.00 0.00 93 1023.7
20180921233517 65 102 1.0 5.0 0.00 0.00 0.00 93 1023.7
20180921233019 65 79 3.0 5.0 0.00 0.00 0.00 93 1023.5
20180921232519 65 95 1.0 5.0 0.00 0.00 0.00 93 1023.5
20180921232014 65 113 1.0 7.0 0.00 0.00 0.00 93 1023.5
20180921231524 65 114 2.0 7.0 0.00 0.00 0.00 93 1023.5
20180921231019 65 113 2.0 5.0 0.00 0.00 0.00 93 1023.5
20180921230523 65 113 2.0 5.0 0.00 0.00 0.00 93 1023.5
20180921230024 65 89 2.0 5.0 0.00 0.00 0.00 93 1023.5
20180921225531 65 95 3.0 6.0 0.00 0.00 0.00 93 1023.7
20180921225031 65 80 3.0 8.0 0.00 0.00 0.00 93 1023.7
20180921224516 65 96 3.0 5.0 0.00 0.00 0.00 93 1023.3
20180921224014 65 71 2.0 6.0 0.00 0.00 0.00 93 1023.3
20180921223515 65 70 3.0 6.0 0.00 0.00 0.00 93 1023.3
20180921223031 65 73 3.0 7.0 0.00 0.00 0.00 93 1023.3
20180921222509 65 90 4.0 7.0 0.00 0.00 0.00 93 1023.3
20180921222032 65 78 3.0 7.0 0.00 0.00 0.00 93 1023.3
20180921221512 65 78 4.0 7.0 0.00 0.00 0.00 93 1023.3
20180921221028 65 66 4.0 7.0 0.00 0.00 0.00 93 1023.3
20180921220513 65 82 5.0 7.0 0.00 0.00 0.00 93 1023.3
20180921220013 65 75 2.0 5.0 0.00 0.00 0.00 93 1023.7
20180921215514 65 84 2.0 5.0 0.00 0.00 0.00 92 1023.7
20180921215012 65 80 1.0 2.0 0.00 0.00 0.00 92 1023.7
20180921214516 65 80 0.0 4.0 0.00 0.00 0.00 92 1023.7
20180921214012 65 80 2.0 5.0 0.00 0.00 0.00 92 1023.7
20180921213531 65 71 1.0 5.0 0.00 0.00 0.00 92 1023.7
20180921213027 65 76 3.0 6.0 0.00 0.00 0.00 92 1023.7
20180921212528 65 77 0.0 4.0 0.00 0.00 0.00 92 1023.6
20180921212023 65 77 0.0 4.0 0.00 0.00 0.00 92 1023.6
20180921211523 65 77 1.0 2.0 0.00 0.00 0.00 92 1023.6
20180921211022 65 77 0.0 2.0 0.00 0.00 0.00 92 1023.5
20180921210521 65 77 1.0 5.0 0.00 0.00 0.00 92 1023.5
20180921210018 65 77 1.0 5.0 0.00 0.00 0.00 92 1023.6
20180921205517 65 73 1.0 7.0 0.00 0.00 0.00 91 1023.6
20180921205020 65 73 3.0 9.0 0.00 0.00 0.00 91 1023.6
20180921204519 65 76 4.0 9.0 0.00 0.00 0.00 91 1023.8
20180921204020 65 69 3.0 7.0 0.00 0.00 0.00 90 1023.8
20180921203518 66 96 3.0 6.0 0.00 0.00 0.00 90 1023.8
20180921203013 66 81 2.0 5.0 0.00 0.00 0.00 90 1023.8
20180921202529 66 103 2.0 9.0 0.00 0.00 0.00 90 1023.8
20180921202022 66 86 4.0 9.0 0.00 0.00 0.00 90 1023.8
20180921201519 66 101 5.0 7.0 0.00 0.00 0.00 90 1024.0
20180921201021 66 82 3.0 7.0 0.00 0.00 0.00 90 1024.0
20180921200526 66 80 3.0 5.0 0.00 0.00 0.00 90 1024.0
20180921200026 66 79 1.0 4.0 0.00 0.00 0.00 90 1024.0
20180921195529 66 80 2.0 4.0 0.00 0.00 0.00 90 1024.0
20180921195027 66 80 1.0 4.0 0.00 0.00 0.00 90 1024.0
20180921194523 66 78 2.0 3.0 0.00 0.00 0.00 90 1023.9
20180921194027 66 78 0.0 4.0 0.00 0.00 0.00 90 1023.9
20180921193526 66 76 2.0 4.0 0.00 0.00 0.00 89 1023.9
20180921193023 66 70 3.0 4.0 0.00 0.00 0.00 89 1023.8
20180921192523 66 96 0.0 3.0 0.00 0.00 0.00 89 1023.8
20180921192021 66 96 2.0 6.0 0.00 0.00 0.00 89 1023.8
20180921191520 66 96 3.0 6.0 0.00 0.00 0.00 89 1023.8